Weather observations for the past three days for
Troy, Oakland/Troy Airport
Imperial (Metric)
Date Time (edt) Wind (mph) Vis. (mi.) Weather Sky Cond. Temperature (ºF) Relative Humidity Wind Chill (°F) Heat Index (°F) Pressure Precipitation (in)
Air Dwpt 6 hour altimeter (in) sea level (mb) 1 hr 3 hr 6 hr
Max. Min.
12 13:15 S 3 10.00 Partly Cloudy SCT033 79.3 64.4 60% 81 30.18 0.0
12 12:55 S 5 10.00 Fair CLR 77.9 64.6 64% 80 30.18 0.0
12 12:35 S 7 10.00 Fair CLR 77.5 65.3 66% 79 30.18 0.0
12 12:15 S 3 10.00 Fair CLR 75.9 67.6 76% 77 30.18 0.0
12 11:55 Calm 10.00 Fair CLR 73.8 67.8 82% 30.19 0.0
12 11:35 Calm 10.00 Partly Cloudy SCT120 72.3 67.3 84% 30.19 0.0
12 11:15 Calm 10.00 Mostly Cloudy SCT032 SCT039 BKN120 71.2 66.2 84% 30.19 0.0
12 10:55 Calm 10.00 Light Rain SCT025 SCT031 BKN047 70.3 66 86% 30.19 0.0
12 10:35 Calm 7.00 Light Rain SCT023 SCT028 BKN036 70.2 66.4 88% 30.19 0.0
12 10:15 Calm 10.00 Light Drizzle SCT110 69.6 64.8 85% 30.19 0.0
12 09:55 Calm 10.00 Light Rain SCT031 BKN041 69.4 64 83% 30.18 0.0
12 09:35 Calm 10.00 Light Rain SCT027 BKN032 OVC110 69.3 64.2 84% 30.18 0.0
12 09:15 Calm 10.00 Overcast SCT046 SCT060 OVC110 69.4 62.8 79% 30.18 0.0
12 08:55 Calm 10.00 Overcast SCT055 BKN070 OVC110 69.4 62.4 78% 30.18 0.0
12 08:35 Calm 10.00 Overcast SCT055 OVC120 68.7 62.1 79% 30.18 0.0
12 08:15 E 3 10.00 Mostly Cloudy SCT055 BKN120 68 61.5 80% 30.17 0.0
12 07:55 E 3 10.00 Light Rain SCT055 BKN120 68 61.3 68.2 66 79% 30.17 0.0
12 07:35 Calm 10.00 Overcast OVC120 67.6 60.1 77% 30.16 0.0
12 07:15 NE 3 10.00 Overcast OVC120 67.3 59.9 77% 30.16 0.0
12 06:55 Calm 10.00 Overcast OVC120 67.1 60.6 80% 30.15 0.0
12 06:35 Calm 10.00 Mostly Cloudy BKN120 66.9 60.4 80% 30.15 0.0
12 06:15 Calm 10.00 Partly Cloudy SCT120 66.6 60.3 80% 30.14 0.0
12 05:55 Calm 10.00 Partly Cloudy SCT120 66.9 60.3 79% 30.14 0.0
12 05:35 Calm 10.00 Fair CLR 66.6 60.1 80% 30.14 0.0
12 05:15 Calm 10.00 Fair CLR 66.2 60.4 82% 30.13 0.0
12 04:55 Calm 10.00 Fair CLR 66.2 60.3 81% 30.13 0.0
12 04:35 Calm 10.00 Fair CLR 66.6 60.6 81% 30.13 0.0
12 04:15 Calm 10.00 Partly Cloudy SCT120 66.4 60.6 82% 30.14 0.0
12 03:55 Calm 10.00 Fair CLR 66.6 60.3 80% 30.13 0.0
12 03:35 Calm 10.00 Fair CLR 66.4 60.3 81% 30.13 0.0
12 03:15 Calm 10.00 Fair CLR 66.4 60.3 81% 30.13 0.0
12 02:55 Calm 10.00 Fair CLR 68 60.3 76% 30.14 0.0
12 02:35 NE 3 10.00 Fair CLR 67.3 60.4 79% 30.13 0.0
12 02:15 NE 5 10.00 Fair CLR 68 60.6 77% 30.14 0.0
12 01:55 NE 3 10.00 Fair CLR 68.9 61 80.1 68.9 76% 30.14 0.0
12 01:35 NE 3 10.00 Fair CLR 69.1 61.2 76% 30.14 0.0
12 01:15 NE 3 10.00 Fair CLR 69.8 61.3 75% 30.15 0.0
12 00:55 E 6 10.00 Fair CLR 70.2 61.7 75% 30.14 0.0
12 00:35 E 7 10.00 Fair CLR 70.7 61.2 72% 30.14 0.0
12 00:15 E 6 10.00 Fair CLR 71.6 60.8 69% 30.14 0.0
11 23:55 E 5 10.00 Fair CLR 71.8 60.4 68% 30.14 0.0
11 23:35 NE 5 10.00 Fair CLR 72.7 60.1 65% 30.13 0.0
11 23:15 E 5 10.00 Fair CLR 72.9 59.5 63% 30.13 0.0
11 22:55 E 5 10.00 Partly Cloudy SCT039 73.4 59.9 63% 30.13 0.0
11 22:35 E 3 10.00 Partly Cloudy SCT039 74.3 60.4 62% 30.13 0.0
11 22:15 E 3 10.00 Partly Cloudy SCT039 75 62.1 64% 77 30.13 0.0
11 21:55 E 6 10.00 Fair CLR 75.4 62.6 65% 77 30.13 0.0
11 21:35 E 5 10.00 Fair CLR 76.1 63.5 65% 78 30.13 0.0
11 21:15 E 5 10.00 Fair CLR 76.6 63.5 64% 78 30.12 0.0
11 20:55 SE 3 10.00 Partly Cloudy SCT047 SCT055 77.7 63.5 62% 79 30.11 0.0
11 20:35 E 8 10.00 Mostly Cloudy SCT038 BKN047 BKN055 78.3 63 59% 80 30.11 0.0
11 20:15 SE 5 10.00 Overcast BKN048 OVC050 79 62.8 58% 80 30.11 0.0
11 19:55 E 7 10.00 Mostly Cloudy BKN050 BKN060 BKN070 79.9 60.8 82.8 78.6 52% 81 30.1 0.0
11 19:35 NE 7 10.00 Mostly Cloudy SCT050 BKN070 80.6 61.7 53% 82 30.1 0.0
11 19:15 E 8 10.00 Mostly Cloudy SCT048 SCT055 BKN070 81 62.2 53% 82 30.09 0.0
11 18:55 E 8 10.00 Overcast BKN048 OVC055 81.1 61.9 52% 82 30.09 0.0
11 18:35 E 7 10.00 Mostly Cloudy SCT048 BKN065 81.5 61 50% 82 30.08 0.0
11 18:15 NE 10 10.00 Mostly Cloudy SCT044 SCT050 BKN065 81.9 61.9 51% 83 30.08 0.0
11 17:55 NE 13 10.00 Fair CLR 81.7 62.6 52% 83 30.08 0.0
11 17:35 Calm 10.00 Partly Cloudy SCT048 SCT050 81.3 61.9 52% 82 30.08 0.0
11 17:15 NW 7 10.00 Mostly Cloudy SCT048 SCT050 BKN070 80.8 61.5 52% 82 30.09 0.0
11 16:55 NW 6 10.00 Mostly Cloudy SCT048 BKN070 81.1 61.2 51% 82 30.08 0.0
11 16:35 W 3 10.00 Mostly Cloudy SCT048 SCT055 BKN070 82.6 60.3 47% 83 30.08 0.0
11 16:15 N 6 10.00 Partly Cloudy SCT048 SCT055 81.3 60.8 50% 82 30.08 0.0
11 15:55 W 3 10.00 Partly Cloudy SCT048 SCT055 81.1 60.1 49% 82 30.08 0.0
11 15:35 Calm 10.00 Fair CLR 80.2 61 52% 81 30.08 0.0
11 15:15 NW 5 10.00 Fair CLR 80.2 60.8 52% 81 30.09 0.0
11 14:55 W 5 10.00 Partly Cloudy SCT046 79.3 60.4 53% 80 30.09 0.0
11 14:35 N 3 10.00 Partly Cloudy SCT046 SCT060 80.1 61.7 54% 81 30.09 0.0
11 14:15 N 7 10.00 Partly Cloudy SCT044 SCT060 80.4 61.5 53% 81 30.09 0.0
11 13:55 N 7 10.00 Partly Cloudy SCT044 78.4 61.3 80.1 68.4 56% 80 30.09 0.0
11 13:35 NW 9 10.00 Partly Cloudy SCT042 78.6 59.9 53% 80 30.09 0.0
11 13:15 NW 6 10.00 Partly Cloudy SCT040 SCT047 79 62.1 56% 80 30.1 0.0
11 12:55 N 6 10.00 Fair CLR 78.3 61.3 56% 80 30.1 0.0
11 12:35 N 7 10.00 Fair CLR 78.3 61.5 57% 80 30.09 0.0
11 12:15 N 8 10.00 Partly Cloudy SCT035 76.6 61.9 60% 78 30.09 0.0
11 11:55 NW 8 10.00 Partly Cloudy SCT031 76.6 63.5 64% 78 30.09 0.0
11 11:35 N 6 10.00 Partly Cloudy SCT029 75.2 62.4 65% 77 30.09 0.0
11 11:15 N 6 10.00 Partly Cloudy SCT027 75.4 63.5 67% 77 30.08 0.0
11 10:55 N 7 10.00 Fair CLR 74.3 63.3 69% 30.07 0.0
11 10:35 N 5 10.00 Partly Cloudy SCT021 73.4 63.1 70% 30.07 0.0
11 10:15 NW 5 10.00 Partly Cloudy SCT021 SCT026 73.8 63.9 71% 30.07 0.0
11 09:55 NW 7 10.00 Partly Cloudy SCT019 73.8 64.4 73% 30.07 0.0
11 09:35 NW 3 0.00 NULL NULL 0 0 0% 30.07 0.0
11 08:55 N 3 10.00 Fair CLR 71.1 62.4 74% 30.07 0.0
11 08:35 N 5 10.00 Fair CLR 70 62.6 78% 30.06 0.0
11 08:15 NW 5 10.00 Fair CLR 69.1 62.2 79% 30.05 0.0
11 07:55 NW 7 10.00 Fair CLR 68 62.6 68 65.5 83% 30.05 0.0
11 07:35 NW 5 10.00 Fair CLR 67.3 62.6 85% 30.04 0.0
11 07:15 NW 5 10.00 Fair CLR 66.6 62.6 87% 30.04 0.0
11 06:55 NW 5 10.00 Fair CLR 65.8 62.1 88% 30.03 0.0
11 06:35 NW 3 10.00 Fair CLR 65.8 62.1 88% 30.03 0.0
11 06:15 NW 5 10.00 Fair CLR 65.7 62.1 88% 30.02 0.0
11 05:55 NW 5 10.00 Fair CLR 65.7 62.1 88% 30.01 0.0
11 05:35 NW 6 10.00 Fair CLR 65.8 62.1 88% 30.01 0.0
11 05:15 NW 6 10.00 Fair CLR 66.2 62.1 87% 30 0.0
11 04:55 NW 8 10.00 Fair CLR 65.8 62.1 88% 30 0.0
11 04:35 NW 6 10.00 Fair CLR 65.7 62.4 89% 29.99 0.0
11 04:15 NW 7 10.00 Partly Cloudy SCT008 SCT012 65.8 62.4 89% 29.99 0.0
11 03:55 NW 5 10.00 Fair CLR 65.7 62.2 89% 29.99 0.0
11 03:35 NW 6 10.00 Fair CLR 65.8 62.2 88% 29.98 0.0
11 03:15 NW 8 10.00 Fair CLR 65.7 62.1 88% 29.98 0.0
11 02:55 NW 6 10.00 Fair CLR 66 62.2 88% 29.98 0.0
11 02:35 NW 6 10.00 Fair CLR 66.4 62.1 86% 29.97 0.0
11 02:15 NW 9 10.00 Fair CLR 66.6 62.2 86% 29.96 0.0
11 01:55 NW 5 10.00 Fair CLR 66.6 62.1 68.4 66 86% 29.96 0.0
11 01:35 W 7 10.00 Fair CLR 66.9 62.1 84% 29.95 0.0
11 01:15 W 9 10.00 Fair CLR 67.1 62.6 86% 29.95 0.0
11 00:55 W 8 G 16 10.00 Fair CLR 67.3 62.6 85% 29.94 0.0
11 00:35 W 9 10.00 Partly Cloudy SCT095 67.6 62.6 84% 29.94 0.0
11 00:15 NW 8 10.00 Mostly Cloudy BKN085 68 62.4 82% 29.93 0.0
10 23:55 NW 9 G 17 10.00 Mostly Cloudy BKN085 68 62.1 81% 29.93 0.0
10 23:35 NW 10 10.00 Overcast OVC070 68.2 62.1 81% 29.92 0.0
10 23:15 NW 8 G 16 10.00 Overcast BKN070 OVC085 68.2 61.3 79% 29.91 0.0
10 22:55 NW 9 10.00 Mostly Cloudy BKN060 BKN085 68 60.8 78% 29.91 0.0
10 22:35 NW 7 10.00 Mostly Cloudy BKN060 68 60.3 76% 29.9 0.0
10 22:15 NW 14 G 21 10.00 Mostly Cloudy SCT048 BKN060 67.6 60.1 77% 29.89 0.0
10 21:55 N 17 G 32 10.00 Overcast SCT022 BKN047 OVC060 67.6 60.6 78% 29.89 0.0
10 21:35 N 10 G 21 10.00 Overcast SCT021 BKN047 OVC060 67.1 61 81% 29.88 0.0
10 21:15 NW 13 G 22 10.00 Overcast SCT042 BKN048 OVC060 66.2 61 83% 29.87 0.0
10 20:55 NW 14 G 22 7.00 Overcast SCT016 BKN040 OVC048 66.2 61.3 84% 29.87 0.0
10 20:35 NW 14 G 21 7.00 Overcast SCT018 BKN026 OVC038 66.2 61.3 84% 29.86 0.0
10 20:15 NW 9 5.00 Fog/Mist SCT023 OVC029 66.2 61.7 86% 29.86 0.0
10 19:55 NW 12 G 20 2.50 Fog/Mist SCT012 BKN026 OVC032 66.2 61.9 67.1 64.8 86% 29.85 0.0
10 19:35 NW 13 G 21 2.00 Fog/Mist BKN014 OVC020 66.2 62.2 87% 29.84 0.0
10 19:15 NW 9 G 20 5.00 Fog/Mist BKN014 OVC019 66.4 62.2 87% 29.82 0.0
10 18:55 NW 13 G 21 2.50 Rain BKN013 BKN020 OVC028 66.2 62.4 88% 29.82 0.0
10 18:35 NW 13 G 20 2.50 Light Drizzle SCT009 BKN015 OVC031 66.4 62.6 88% 29.8 0.0
10 18:15 NW 13 G 17 3.00 Fog/Mist SCT009 BKN014 OVC026 66.4 62.6 88% 29.79 0.0
10 17:55 NW 10 G 18 5.00 Fog/Mist BKN011 BKN016 OVC023 66.2 62.2 87% 29.78 0.0
10 17:35 NW 12 G 18 4.00 Fog/Mist BKN012 BKN018 OVC026 66.2 62.2 87% 29.77 0.0
10 17:15 N 13 G 26 5.00 Fog/Mist BKN012 BKN018 OVC026 66.2 62.1 87% 29.76 0.0
10 16:55 N 15 G 24 4.00 Fog/Mist SCT009 BKN014 OVC022 65.7 61.9 88% 29.75 0.0
10 16:35 NW 13 G 21 3.00 Fog/Mist SCT009 BKN015 OVC022 65.3 61.9 89% 29.73 0.0
10 16:15 N 14 G 23 3.00 Fog/Mist SCT012 BKN018 OVC025 64.9 61.2 88% 29.74 0.0
10 15:55 N 17 G 24 3.00 Fog/Mist SCT012 BKN017 OVC029 65.3 61.2 87% 29.72 0.0
10 15:35 N 13 G 26 7.00 Overcast BKN014 OVC019 65.5 61.2 86% 29.71 0.0
10 15:15 N 13 G 22 10.00 Light Rain OVC016 65.5 61.5 87% 29.7 0.0
10 14:55 N 10 G 20 5.00 Rain BKN014 OVC024 64.9 61.7 89% 29.7 0.0
10 14:35 N 16 G 23 7.00 Rain BKN014 OVC025 65.1 61.2 87% 29.69 0.0
10 14:15 N 15 G 21 7.00 Light Rain BKN012 OVC023 65.5 61.7 88% 29.68 0.0
10 13:55 N 13 G 22 10.00 Light Rain BKN012 OVC023 65.7 61.9 68.9 64.4 88% 29.68 0.0
10 13:35 N 9 G 20 10.00 Rain SCT010 BKN014 OVC021 65.7 62.1 88% 29.68 0.0
10 13:15 N 13 G 20 7.00 Overcast BKN008 OVC013 65.7 62.6 90% 29.67 0.0
10 12:55 N 10 G 18 7.00 Overcast SCT008 BKN013 OVC019 66.2 63.5 91% 29.66 0.0
10 12:35 N 12 G 18 7.00 Light Rain SCT008 OVC013 65.7 63.1 92% 29.66 0.0
10 12:15 N 8 4.00 Light Rain OVC008 65.3 62.8 92% 29.67 0.0
10 11:55 N 7 2.50 Heavy Rain OVC008 65.1 62.6 92% 29.66 0.0
10 11:35 N 7 3.00 Heavy Rain BKN008 OVC013 64.9 62.6 92% 29.66 0.0
10 11:15 NE 12 G 17 3.00 Rain OVC008 64.8 62.6 93% 29.65 0.0
10 10:55 NE 12 2.50 Rain OVC008 64.6 62.4 93% 29.66 0.0
10 10:35 NE 12 G 18 4.00 Rain OVC008 64.4 61.7 91% 29.65 0.0
10 10:15 NE 15 G 20 5.00 Rain OVC010 64.4 61.7 91% 29.65 0.0
10 09:55 NE 17 G 25 4.00 Light Rain OVC010 64.4 61.7 91% 29.65 0.0
10 09:35 NE 12 G 28 3.00 Rain BKN010 OVC015 64.4 61.7 91% 29.65 0.0
10 09:15 NE 23 G 30 10.00 Drizzle and Breezy OVC008 64.8 61.9 90% 29.65 0.0
10 08:55 NE 17 G 30 5.00 Light Rain OVC008 65.3 62.6 91% 29.66 0.0
10 08:35 NE 12 G 30 10.00 Light Rain OVC008 66.2 62.8 89% 29.66 0.0
10 08:15 NE 13 G 22 7.00 Light Rain OVC008 68.5 65.8 91% 29.66 0.0
10 07:55 NE 12 10.00 Rain OVC008 68.7 66 71.1 68.4 91% 29.67 0.0
10 07:35 NE 14 G 17 10.00 Overcast OVC008 69.1 66 90% 29.68 0.0
10 07:15 NE 13 G 16 10.00 Overcast OVC008 69.1 66.2 91% 29.68 0.0
10 06:55 NE 12 G 17 10.00 Overcast OVC008 69.1 66.2 91% 29.68 0.0
10 06:35 NE 10 G 20 10.00 Overcast OVC010 69.1 66.2 91% 29.69 0.0
10 06:15 NE 12 10.00 Light Drizzle BKN010 OVC016 68.7 66.2 92% 29.69 0.0
10 05:55 NE 12 G 18 3.00 Rain BKN007 OVC016 68.5 66.2 92% 29.69 0.0
10 05:35 Calm 3.00 Heavy Rain OVC009 68.5 66.2 92% 29.7 0.0
10 05:15 N 12 G 22 2.50 Heavy Rain SCT007 OVC012 69.1 66.4 91% 29.68 0.0
10 04:55 NE 21 G 28 2.50 Rain and Breezy BKN007 BKN017 OVC026 69.3 66.9 92% 29.66 0.0
10 04:35 NE 18 G 25 3.00 Heavy Rain SCT005 BKN009 OVC020 69.1 66.9 93% 29.69 0.0
10 04:15 NE 12 2.00 Heavy Rain SCT008 BKN012 OVC019 68.9 66.4 92% 29.72 0.0
10 03:55 NE 12 G 24 3.00 Heavy Rain SCT021 BKN026 OVC042 69.1 66.2 91% 29.74 0.0
10 03:35 NE 13 G 21 3.00 Heavy Rain SCT008 SCT021 OVC040 69.6 66.4 90% 29.75 0.0
10 03:15 E 15 G 20 4.00 Rain SCT010 BKN019 OVC043 70.7 68 91% 29.77 0.0
10 02:55 E 10 2.50 Heavy Rain BKN007 BKN018 OVC048 70.7 68.4 92% 29.77 0.0
10 02:35 NE 7 5.00 Rain SCT007 BKN018 OVC055 71.1 68.5 92% 29.8 0.0
10 02:15 NE 9 7.00 Light Rain SCT019 OVC060 70.9 68 91% 29.8 0.0
10 01:55 NE 9 4.00 Rain SCT021 SCT035 OVC065 71.1 68.7 78.3 71.1 92% 29.8 0.0
10 01:35 NE 9 4.00 Rain BKN075 71.6 68.9 91% 29.82 0.0
10 01:15 NE 6 7.00 Rain OVC075 71.8 68.7 90% 29.83 0.0
10 00:55 N 5 10.00 Light Rain OVC075 71.6 68 88% 29.83 0.0
10 00:35 NE 7 10.00 Overcast OVC075 72.3 68.2 87% 29.84 0.0
10 00:15 NE 7 5.00 Light Rain SCT022 BKN043 OVC095 72.7 69.6 90% 29.85 0.0
09 23:55 N 6 2.50 Heavy Rain SCT022 BKN038 OVC085 72.7 69.8 91% 29.86 0.0
09 23:35 Calm 10.00 Light Rain SCT050 SCT070 BKN120 74.5 68.9 83% 29.87 0.0
09 23:15 Calm 10.00 Light Rain SCT120 74.5 69.1 83% 29.88 0.0
09 22:55 Calm 10.00 Fair CLR 75 68.7 81% 76 29.88 0.0
09 22:35 Calm 10.00 Light Drizzle SCT095 74.7 68.7 82% 29.88 0.0
09 22:15 Calm 10.00 Light Rain SCT095 75 68.4 80% 76 29.89 0.0
09 21:55 Calm 10.00 Light Rain CLR 74.7 68.2 80% 29.9 0.0
09 21:35 Calm 10.00 Light Drizzle CLR 75.2 67.8 78% 76 29.91 0.0
09 21:15 Calm 10.00 Light Rain SCT034 SCT048 SCT060 75.7 67.5 76% 77 29.91 0.0
09 20:55 Calm 10.00 Fair CLR 77.2 65.3 67% 79 29.91 0.0
09 20:35 W 3 10.00 Fair CLR 77.2 65.5 67% 79 29.91 0.0
09 20:15 W 3 10.00 Fair CLR 77.9 67.1 70% 80 29.92 0.0
09 19:55 W 5 10.00 Fair CLR 78.3 67.8 83.8 78.3 70% 80 29.92 0.0
09 19:35 Calm 10.00 Fair CLR 78.3 68 71% 80 29.92 0.0
09 19:15 SW 3 10.00 Light Rain SCT040 SCT090 78.4 67.6 70% 81 29.92 0.0
09 18:55 SW 5 10.00 Rain CLR 79 67.8 69% 81 29.93 0.0
09 18:35 SW 5 10.00 Fair CLR 79.7 68 68% 82 29.93 0.0
09 18:15 SW 6 10.00 Partly Cloudy SCT085 SCT090 79.3 68.2 69% 82 29.93 0.0
09 17:55 SW 6 10.00 Light Rain SCT027 SCT045 BKN070 79.2 69.4 72% 82 29.93 0.0
09 17:35 SW 7 10.00 Mostly Cloudy SCT022 SCT028 BKN034 79.7 67.5 66% 82 29.93 0.0
09 17:15 Calm 10.00 Light Rain SCT023 SCT029 SCT055 79.5 69.3 71% 82 29.94 0.0
09 16:55 Calm 10.00 Partly Cloudy SCT025 SCT100 80.1 69.3 70% 83 29.95 0.0
09 16:35 SW 5 10.00 Partly Cloudy SCT032 SCT038 79.3 69.4 72% 82 29.95 0.0
09 16:15 W 6 10.00 Light Rain SCT024 BKN033 BKN039 79 71.4 78% 82 29.94 0.0
09 15:55 SW 9 10.00 Light Rain SCT026 BKN033 OVC039 79.2 71.1 76% 82 29.95 0.0
09 15:35 SW 12 10.00 Light Rain SCT028 BKN032 BKN042 80.1 69.4 70% 83 29.95 0.0
09 15:15 S 10 10.00 Mostly Cloudy SCT031 BKN060 82 67.8 62% 85 29.95 0.0
09 14:55 SW 8 10.00 Partly Cloudy SCT033 SCT060 82.6 65.8 57% 85 29.95 0.0
09 14:35 S 6 10.00 Partly Cloudy SCT032 82.6 66 57% 85 29.95 0.0
09 14:15 S 6 10.00 Partly Cloudy SCT032 SCT040 82.9 66.2 57% 85 29.96 0.0
09 13:55 S 5 10.00 Partly Cloudy SCT032 SCT038 82.6 65.8 83.5 73.9 57% 85 29.97 0.0
Date Time (edt) Wind (mph) Vis. (mi.) Weather Sky Cond. Air Dwpt Max. Min. Relative Humidity Wind Chill (°F) Heat Index (°F) altimeter (in) sea level (mb) 1 hr 3 hr 6 hr
6 hour
Temperature (ºF) Pressure Precipitation (in)